GFSNGP_850_rhum_354.txt.gz
RH
91 91 94 95 95 93 97 97 98 100 98 98 97 97 98 98 98 98 98 98 97 96 96 96 96 96 96 96 95 95 95 95 95 95 95 95 94 88 79 70 68 70 71 73
96 93 92 96 97 93 95 99 96 95 99 96 97 96 96 97 98 98 99 98 96 95 96 96 96 96 96 96 96 96 96 96 96 96 96 95 95 95 95 95 95 95 94 93
98 94 96 95 100 98 99 96 98 98 99 96 95 94 97 97 97 98 78 91 97 98 93 95 96 96 96 96 96 96 96 96 96 96 96 96 96 96 96 96 96 96 96 95
98 97 98 98 83 71 94 98 96 96 96 97 99 88 100 99 95 83 69 86 91 82 67 62 64 70 86 93 96 96 96 96 96 96 96 96 96 96 96 96 96 96 96 96
97 98 100 98 94 97 96 99 97 98 96 96 88 68 88 97 67 70 79 83 93 75 71 69 65 65 67 63 62 61 72 88 93 95 96 96 97 96 96 96 96 96 96 96
96 98 99 97 92 96 96 96 95 94 92 100 87 86 78 54 61 82 79 88 91 80 92 76 59 55 56 54 50 52 64 78 77 76 87 92 94 96 96 97 96 96 95 95
96 99 99 95 81 73 95 93 75 82 94 100 100 87 80 71 94 91 76 92 83 91 82 80 64 80 82 71 58 54 55 79 95 93 91 82 75 71 68 67 76 83 82 84
85 94 96 72 65 66 85 87 83 77 94 100 92 84 82 82 88 79 80 76 83 75 85 89 76 87 80 66 62 59 56 53 56 73 84 84 77 64 56 50 45 57 79 80
78 88 78 87 77 75 84 98 94 92 84 99 100 95 95 92 87 87 88 81 84 83 84 90 85 79 76 69 67 68 68 64 64 60 55 54 54 56 60 60 64 67 71 77
77 79 94 72 70 75 73 87 83 87 92 100 100 100 100 98 100 100 89 87 86 85 92 91 89 87 79 79 75 77 76 71 66 61 58 57 62 79 99 88 73 75 77 75
88 64 63 72 68 79 93 94 86 96 100 100 100 99 100 100 98 95 96 94 91 100 100 95 94 88 81 85 84 85 82 77 70 68 70 73 69 66 100 92 89 84 72 62
79 53 79 72 72 92 88 78 90 100 93 86 100 100 100 97 93 96 97 96 100 99 98 93 94 88 84 84 83 86 87 79 75 81 85 89 99 92 91 100 100 100 100 99
75 74 97 86 69 64 86 90 87 95 88 88 81 93 95 90 86 96 100 99 95 95 91 90 89 87 85 82 84 85 81 76 77 80 84 92 94 96 93 73 88 100 97 94
89 100 86 56 69 77 80 78 82 80 76 81 84 89 97 100 95 94 92 94 96 93 91 89 89 89 85 83 85 80 78 90 100 95 93 93 90 96 99 100 95 72 70 91
45 68 74 82 75 61 66 72 73 69 68 67 72 82 91 94 93 90 90 94 96 97 92 93 92 81 80 83 82 79 100 96 85 73 73 88 97 99 98 96 99 86 78 70
84 84 75 69 57 56 64 64 75 68 72 72 71 75 87 93 92 88 88 91 97 94 92 95 93 80 78 76 86 99 96 89 100 100 99 100 99 98 99 100 98 90 78 63
92 74 53 61 61 60 64 68 76 76 78 78 81 88 93 95 95 89 86 88 90 90 93 94 87 78 73 87 100 100 80 79 96 100 100 100 91 86 89 99 94 88 86 79
94 76 69 76 75 71 60 60 64 66 66 69 76 83 87 94 95 95 94 90 92 89 84 83 80 78 88 94 89 82 78 89 88 92 89 95 100 100 100 100 100 100 94 85
97 95 87 70 64 67 62 54 55 59 56 63 75 77 84 87 92 96 94 98 96 93 75 74 78 100 97 84 100 98 85 99 100 100 100 100 99 94 93 86 94 100 100 97
97 97 97 95 87 70 63 54 55 54 49 62 67 72 78 82 91 93 93 91 87 86 82 72 78 88 88 71 55 51 80 100 97 100 100 100 100 100 99 100 100 100 100 99
94 96 96 98 96 94 88 91 66 47 48 57 62 66 78 80 86 92 92 90 66 74 84 100 100 88 80 54 50 91 100 100 100 96 98 100 100 99 99 100 99 88 83 75
91 96 96 97 98 95 94 96 97 65 53 51 52 61 73 74 79 83 84 85 69 64 61 67 80 80 87 98 100 98 100 100 85 74 100 100 100 100 100 100 100 98 100 100
82 84 95 96 98 97 93 94 97 97 93 81 56 56 65 68 74 85 72 74 74 61 61 74 89 100 100 99 100 90 90 82 66 71 100 100 100 100 100 100 100 99 100 100
64 71 82 94 96 96 94 91 97 96 97 97 96 98 99 82 78 75 69 78 93 100 72 62 90 100 100 100 97 88 73 65 58 65 92 100 100 100 100 100 100 99 95 100
59 63 75 80 85 94 95 95 96 94 97 97 96 97 99 100 100 90 95 87 77 92 76 50 57 100 100 96 74 65 62 58 57 64 94 100 100 100 100 100 100 99 91 82
64 65 70 83 87 92 96 97 96 93 96 94 92 93 96 98 98 98 98 98 97 91 74 72 63 56 57 56 56 56 58 57 58 64 79 100 100 100 100 100 100 97 93 87
81 91 87 87 83 90 94 99 100 97 97 97 95 90 95 96 96 98 98 96 96 97 98 95 77 78 80 73 66 65 67 68 72 75 78 100 100 99 81 97 91 85 81 81

GFSNGP_850_rhum_360.txt.gz
RH
90 90 90 93 92 93 93 92 92 93 90 88 86 85 89 94 95 88 87 94 97 100 99 48 41 53 82 92 94 95 95 95 95 95 95 95 95 95 95 96 96 96 96 96
95 92 92 95 93 94 95 93 94 93 94 91 95 97 93 96 96 89 89 94 99 98 95 60 56 49 45 41 64 89 92 95 96 96 95 95 95 96 96 96 95 96 96 96
94 92 93 92 96 93 91 91 90 92 91 91 91 85 88 99 100 92 83 92 96 90 94 80 71 64 57 47 42 40 43 73 89 91 94 96 96 96 96 96 96 96 96 95
93 92 95 92 89 87 92 93 88 90 90 84 84 87 91 100 94 68 57 61 60 59 69 75 67 70 66 52 46 44 41 41 44 55 78 90 93 95 96 96 96 96 96 95
88 90 94 88 88 90 91 92 86 83 66 69 79 82 98 100 77 64 60 60 63 60 62 63 69 61 60 58 54 52 50 48 45 47 56 65 65 74 93 96 96 96 95 96
80 81 90 84 78 71 86 81 79 74 70 73 67 43 52 94 59 58 61 63 62 62 61 59 62 65 62 63 64 65 58 54 51 50 47 48 64 72 73 72 77 100 100 100
78 87 87 79 62 70 66 73 70 80 84 85 70 66 82 89 91 100 100 88 82 73 60 59 62 65 60 64 70 73 64 59 56 55 52 48 48 50 66 79 81 72 75 86
47 57 54 77 48 45 74 78 82 83 80 86 88 90 89 87 89 92 98 100 100 100 92 72 68 70 65 64 73 78 74 65 63 59 56 55 54 49 48 49 51 63 74 71
71 53 82 72 76 62 61 74 78 83 86 92 91 87 86 85 87 90 97 97 100 100 96 90 94 80 72 69 77 78 76 70 67 64 62 61 60 54 52 50 49 50 76 100
61 66 67 68 56 47 53 59 72 86 95 96 94 92 92 90 87 89 93 99 100 100 100 100 100 100 89 79 79 75 73 72 72 68 67 82 100 67 62 62 95 100 95 100
59 57 52 40 41 46 59 70 76 76 85 86 99 96 96 95 91 88 90 92 100 100 100 98 100 100 100 96 87 81 79 78 76 74 72 67 62 63 65 68 81 95 90 62
50 41 54 53 51 68 76 68 63 69 73 70 81 74 78 78 70 72 70 73 84 100 100 100 100 90 85 86 88 85 82 92 100 100 100 100 100 100 81 100 100 100 100 99
73 65 74 70 60 48 48 52 63 75 66 65 55 69 70 69 66 69 97 80 81 84 82 84 84 82 81 85 90 87 85 83 82 100 100 100 100 100 100 62 98 100 100 97
97 91 76 53 60 76 72 63 70 61 55 57 59 60 63 64 61 64 66 73 83 86 82 80 81 80 82 86 88 87 85 86 100 100 100 100 100 100 100 100 100 100 83 100
88 95 95 98 94 86 84 72 65 54 50 48 50 53 54 55 55 54 61 70 80 84 80 84 83 74 82 88 89 86 83 77 79 84 98 100 100 100 100 100 100 100 100 100
98 97 96 96 93 91 96 94 94 80 70 61 52 44 48 51 48 49 53 64 76 72 76 81 78 73 82 84 81 77 70 74 100 99 100 100 100 100 100 100 100 100 99 98
98 94 100 100 99 96 96 95 96 92 91 83 77 65 51 47 46 43 47 58 68 67 72 75 70 78 75 72 70 67 73 81 98 100 100 100 100 100 100 100 100 100 98 100
96 98 99 100 100 100 95 94 94 94 94 95 94 92 83 62 52 49 49 57 63 62 62 68 71 65 61 64 64 78 85 78 79 87 94 100 100 100 100 100 100 100 100 100
88 89 88 89 92 100 99 94 96 100 98 98 99 96 98 94 79 71 60 60 60 62 49 67 59 56 61 57 79 72 71 74 97 100 98 100 100 100 100 100 100 100 100 100
100 100 97 85 80 83 81 84 98 98 95 97 98 97 96 96 98 97 97 74 69 76 66 63 63 51 46 44 89 100 100 100 100 89 90 100 100 100 100 100 100 100 100 100
100 100 99 97 87 83 83 85 97 98 98 99 98 96 98 98 98 99 98 96 77 95 91 67 62 48 45 44 49 87 100 99 95 100 100 100 100 100 87 100 100 100 100 100
100 100 100 100 100 100 100 100 100 100 100 100 100 98 98 94 99 99 97 97 95 100 99 92 68 61 50 53 59 52 55 73 98 100 100 100 100 100 77 92 100 100 100 100
100 100 100 100 100 100 91 97 100 100 100 100 100 100 100 100 100 100 96 92 96 93 98 95 98 92 100 100 100 94 91 100 100 100 100 98 99 100 74 75 99 100 100 100
100 91 94 96 100 100 100 94 95 90 96 98 96 97 100 100 97 90 96 98 99 100 100 97 94 100 100 100 100 98 100 98 96 98 100 100 100 97 72 77 93 100 100 100
91 95 99 100 100 100 100 100 98 100 100 100 100 100 98 97 100 96 100 100 99 100 100 98 100 100 100 100 100 100 100 100 100 100 100 100 99 77 70 84 96 100 100 100
98 100 100 99 100 100 100 100 100 100 100 100 96 88 99 100 100 100 100 100 100 100 100 99 99 99 99 99 100 98 100 100 100 99 98 88 78 77 88 93 100 100 100 100
98 100 100 87 87 100 100 100 100 100 96 96 100 100 84 98 100 100 100 100 100 100 100 100 100 100 100 100 99 100 100 100 100 100 90 89 90 92 93 94 100 100 85 88

GFSNGP_850_rhum_363.txt.gz
RH
92 88 88 89 91 94 95 94 92 91 89 88 89 91 93 96 90 87 88 91 96 98 93 48 35 32 30 30 40 70 90 94 95 95 95 96 95 95 96 96 95 95 95 96
93 92 91 95 93 91 92 92 94 92 93 90 93 95 91 92 91 90 90 94 97 100 100 81 47 40 35 34 31 30 29 54 86 94 95 95 96 96 95 95 95 96 95 95
90 91 93 88 97 93 94 93 93 92 92 90 89 88 91 93 97 97 94 96 100 90 91 63 60 49 45 39 35 33 33 35 32 42 72 92 95 95 96 96 96 95 95 96
91 88 88 92 89 89 92 94 94 93 92 90 82 81 86 92 98 99 65 58 58 60 57 57 58 55 49 46 42 39 35 34 36 37 38 42 56 84 96 96 96 96 96 95
90 89 92 88 85 90 92 93 90 85 65 62 64 74 92 100 86 85 65 56 55 53 55 58 60 56 54 51 50 50 47 43 39 36 37 38 39 45 51 64 92 96 96 95
80 85 91 85 66 62 78 76 74 67 67 71 59 44 78 100 86 80 80 77 61 55 55 57 60 55 54 56 60 63 57 53 50 47 42 38 39 41 43 53 65 100 100 98
60 70 79 72 56 55 79 85 68 71 77 79 67 69 85 88 89 92 92 93 90 93 72 64 58 56 52 55 59 71 71 65 59 55 50 48 44 41 41 42 44 53 66 70
46 49 68 73 45 57 75 72 68 66 68 71 76 77 75 71 71 74 80 88 96 100 98 98 97 88 66 60 64 62 61 66 68 65 60 56 52 49 48 46 44 41 41 44
67 59 79 78 78 61 50 76 62 68 67 71 74 71 67 68 70 70 73 76 82 92 99 100 100 100 99 87 80 76 67 61 62 66 68 65 61 56 55 59 74 72 84 99
68 65 52 65 72 59 63 74 73 70 72 74 75 73 72 71 71 71 72 75 79 86 91 94 98 100 100 100 100 100 94 85 80 82 86 100 100 100 100 100 100 100 100 100
58 53 50 38 32 37 54 66 71 73 74 76 78 78 80 78 77 78 78 81 83 87 93 96 100 100 100 100 100 100 93 82 93 100 100 100 100 100 100 94 99 98 81 80
84 74 65 61 57 59 68 58 53 66 68 70 84 89 89 86 79 79 70 68 70 72 87 96 100 93 84 89 87 83 82 95 100 100 100 100 100 100 100 100 100 100 100 100
90 96 96 88 80 68 58 74 73 72 66 67 51 60 59 58 52 53 76 61 62 66 66 67 70 72 74 79 83 83 82 81 98 100 100 100 100 100 99 99 100 99 96 95
97 98 89 83 94 97 98 95 97 89 73 62 54 50 48 48 47 46 43 45 55 58 60 62 66 66 71 77 84 84 81 97 100 100 100 99 100 100 100 98 95 91 96 98
99 99 96 99 94 90 97 96 95 91 88 90 86 76 67 57 47 42 42 43 50 56 55 61 66 65 74 76 80 82 86 96 100 100 100 100 100 99 98 98 97 92 90 90
95 91 93 98 95 92 97 95 98 91 93 94 96 94 94 87 75 60 48 46 51 50 53 60 61 61 75 73 74 79 75 84 100 95 93 100 99 100 97 95 92 94 96 85
98 92 98 98 100 100 100 100 100 100 100 100 97 100 99 96 93 86 81 60 52 47 50 58 54 64 72 69 66 68 68 65 100 100 100 96 94 98 99 97 95 90 85 85
98 96 98 97 99 100 100 100 100 100 100 96 98 100 99 99 95 93 96 99 81 65 55 53 57 61 65 61 58 60 58 59 90 100 100 100 100 100 98 96 96 100 100 100
100 97 96 98 99 99 100 100 100 100 100 100 100 97 99 97 97 96 97 98 96 93 78 83 72 62 59 50 54 56 54 58 89 100 98 100 100 98 97 97 92 92 96 96
100 100 100 100 100 100 100 96 100 100 100 100 100 100 99 96 99 98 99 97 90 94 98 99 99 80 65 61 100 99 74 56 64 91 100 100 100 100 100 100 100 100 99 100
100 100 100 100 100 100 100 100 100 100 100 100 100 100 100 98 98 100 99 99 79 97 97 99 100 97 94 67 76 88 100 100 100 100 100 100 100 100 100 100 100 100 100 100
100 100 100 100 100 98 100 100 100 100 100 100 100 100 100 100 99 99 98 97 90 95 100 100 97 98 99 100 100 83 62 77 89 100 100 100 100 100 100 100 100 99 93 100
100 100 100 100 100 100 100 100 100 100 100 100 100 100 100 100 100 100 99 89 100 99 100 97 98 100 100 100 100 100 97 95 90 80 88 100 100 100 100 100 100 100 89 97
100 100 100 100 100 100 100 100 99 100 100 100 100 100 100 100 97 89 97 100 100 100 98 100 100 100 100 99 98 100 100 97 93 85 97 100 100 100 98 99 100 98 82 88
100 100 100 100 100 100 100 100 100 100 100 100 86 98 100 96 98 100 100 100 99 100 98 97 100 100 100 100 100 98 94 87 90 100 100 100 100 100 100 100 99 80 83 95
100 100 100 100 100 100 100 100 100 100 100 100 81 100 96 73 78 94 98 100 100 100 100 99 100 99 99 98 98 98 99 100 100 100 100 100 100 100 98 90 83 88 96 100
100 100 100 100 100 100 100 100 100 100 99 100 100 98 77 80 77 100 100 100 100 98 98 98 100 100 100 100 100 100 100 100 100 99 98 100 100 100 99 88 93 94 96 100

GFSNGP_850_rhum_366.txt.gz
RH
94 95 92 95 96 96 95 97 97 97 95 95 94 94 97 96 96 98 95 85 81 70 59 46 40 36 33 30 25 24 33 61 84 94 92 91 91 92 96 96 95 95 96 96
98 95 89 94 93 95 96 96 96 94 98 96 96 95 97 96 97 96 88 63 81 56 49 46 38 36 36 32 30 29 26 22 24 42 75 91 93 93 92 91 95 96 96 95
96 95 95 85 99 97 96 95 98 99 98 96 96 96 97 97 93 92 80 63 63 62 53 47 42 38 36 36 35 33 31 30 28 25 24 29 54 87 94 93 93 93 94 95
97 95 97 95 95 94 96 97 96 96 96 97 97 95 92 86 100 84 66 57 53 52 50 50 48 42 39 37 36 36 36 36 34 33 31 28 27 28 39 74 95 94 93 94
96 97 98 97 93 95 97 99 94 87 81 73 75 74 93 92 78 74 70 62 60 59 56 54 56 51 48 46 42 38 35 35 38 39 38 38 35 32 31 30 35 50 90 96
91 95 100 97 72 56 84 94 75 70 78 82 72 90 100 96 85 74 78 75 66 65 60 54 52 50 49 50 49 49 45 41 38 40 43 42 41 40 38 37 36 36 46 79
77 91 98 88 61 48 91 96 70 71 77 78 88 82 78 74 75 74 76 80 86 92 75 62 55 54 53 54 54 54 52 52 50 47 42 42 42 43 42 41 41 39 38 36
85 80 64 79 57 72 78 58 69 66 67 64 70 74 74 70 67 68 69 71 71 78 76 73 74 67 62 59 63 59 56 55 56 54 52 50 47 46 47 46 44 40 41 37
78 84 72 44 57 48 52 50 46 69 70 73 71 72 71 68 68 67 68 68 68 70 75 77 84 91 89 72 79 75 69 65 63 61 56 55 56 52 50 55 63 56 63 64
86 75 68 48 47 47 51 51 48 50 66 70 71 70 71 70 70 71 70 70 70 70 69 72 82 84 87 91 90 85 72 65 64 65 73 95 92 76 73 58 64 75 75 64
88 70 69 41 61 64 56 56 60 56 60 65 70 70 71 70 68 64 65 68 68 66 62 58 62 68 77 82 96 95 87 76 69 69 72 82 92 94 97 92 96 91 78 78
98 80 97 85 86 94 96 85 76 73 69 59 57 57 58 58 51 50 48 47 51 52 54 52 59 64 73 75 79 78 75 75 74 93 98 100 100 96 90 100 100 100 100 99
94 97 98 88 83 92 95 94 97 100 96 95 89 88 77 65 52 48 52 46 45 46 50 53 55 55 54 61 70 70 70 70 73 93 88 91 90 91 88 80 100 100 98 100
97 96 90 88 99 100 100 97 99 96 95 96 96 96 96 95 85 74 64 51 45 45 45 42 45 45 48 57 68 71 71 75 100 98 97 98 98 100 97 94 88 81 84 98
99 96 97 96 91 89 91 95 98 91 87 88 93 96 98 97 97 94 91 83 69 53 44 41 42 43 50 58 67 68 69 68 68 70 76 88 91 86 87 90 88 81 79 83
96 93 90 99 98 98 99 98 100 99 99 94 90 87 95 98 94 93 93 96 96 88 69 52 45 43 52 59 63 66 62 68 95 92 80 84 89 92 87 92 90 84 88 89
100 93 98 96 100 100 100 100 99 100 100 100 100 100 100 100 97 92 92 97 97 96 95 91 76 58 54 60 62 63 59 56 67 100 100 89 83 93 95 86 95 89 83 83
100 100 100 100 100 100 99 100 100 100 100 98 98 100 100 100 100 98 96 98 96 94 92 95 98 100 77 61 62 64 60 55 55 62 96 94 90 90 89 86 82 86 93 92
100 100 100 100 100 100 100 100 100 100 100 100 100 99 100 100 100 100 99 100 99 99 85 98 97 100 96 86 73 66 62 56 53 50 50 63 89 93 90 93 95 96 90 90
99 92 100 100 92 96 100 100 100 100 97 100 100 100 100 100 100 100 100 100 97 90 95 98 100 100 100 98 100 97 79 64 54 50 50 56 64 65 72 93 99 97 100 100
100 100 100 100 100 91 97 100 100 100 100 99 100 100 100 100 97 100 100 100 84 96 100 100 100 100 99 100 100 100 100 95 96 84 56 59 92 100 100 100 100 100 99 89
100 100 100 100 100 100 100 97 100 100 100 100 100 98 100 100 100 99 97 97 100 98 100 98 97 98 100 100 100 99 100 100 100 98 90 80 90 100 96 92 95 95 93 93
100 100 100 100 100 97 100 100 93 100 100 96 100 97 96 100 100 99 100 98 100 96 100 100 100 100 100 100 100 99 95 96 98 91 89 92 91 87 89 91 91 97 96 96
100 100 100 100 100 100 96 100 90 100 100 95 96 83 100 100 92 72 67 97 100 100 100 100 99 100 100 99 94 87 88 86 86 92 95 99 98 86 79 74 85 92 99 100
100 100 100 100 100 100 100 94 92 100 88 100 81 95 100 99 79 84 100 100 100 100 99 98 99 100 99 98 99 100 100 99 97 99 99 100 100 100 100 98 99 100 100 100
100 100 100 99 100 100 100 100 100 99 99 100 77 100 100 71 68 95 100 100 100 99 92 91 94 99 100 100 96 98 99 100 100 100 100 97 97 100 99 100 100 99 100 99
100 100 100 100 100 100 100 100 100 99 100 93 100 100 85 67 72 99 100 100 92 73 71 77 78 81 100 100 100 100 100 100 100 99 97 99 100 100 100 97 93 97 97 92